Regional Weather Roundup
Issued by NWS

Home | Current Version | Previous Version | Graphics & Text | Print | Product List | Glossary On
Versions: 1 2 3 4 5 6 7 8 9 10 11 12 13 14 15 16 17 18 19 20 21 22 23 24 25 26 27 28 29 30 31 32 33 34 35 36 37 38 39 40 41 42 43 44 45 46 47 48 49 50
000
ASUS45 KSLC 240810
RWRUT

UTAH REGIONAL WEATHER ROUNDUP
NATIONAL WEATHER SERVICE SALT LAKE CITY UT
200 AM MDT SUN MAY 24 2015

UTZ001>011-023>025-240900-

NORTHERN UTAH

CITY           SKY/WX    TMP DP  RH WIND       PRES   REMARKS
BRIGHAM CITY   PTCLDY    50  47  88 NW3       29.97R
HILL AFB       MOCLDY    48  43  82 E10       29.97S
LOGAN          CLOUDY    48  44  86 CALM      29.97S
OGDEN          MOCLDY    48  43  82 S8        29.96S
PROVO AIRPORT  CLOUDY    48  41  76 E6        29.98S
SALT LAKE CITY MOCLDY    50  43  77 SE6       29.96S
VERNAL         PTCLDY    44  37  76 NW3       29.97S
WENDOVER       CLOUDY    54  48  82 CALM      29.97F
HEBER CITY     PTCLDY    39  36  87 CALM      29.99S
WEST JORDAN    CLEAR     45  41  87 SW3       29.98S

$$

UTZ012>022-026-027-240900-

SOUTHERN/CENTRAL UTAH

CITY           SKY/WX    TMP DP  RH WIND       PRES   REMARKS
BLANDING       MOCLDY    43  42  96 NE5       30.07S
BRYCE CANYON   CLOUDY    39  37  92 NW5       30.04F
CEDAR CITY     CLOUDY    45  42  89 SE6       29.98F
DELTA          CLEAR     43  40  89 SE6       29.98S
HANKSVILLE     PTCLDY    46  43  87 CALM      29.99S
MILFORD        CLOUDY    48  45  89 CALM      29.98R
MOAB/CYNLANDS  CLEAR     47  42  83 E3        29.95S
PRICE          CLEAR     39  34  82 N6        29.99S WCI  35
ST GEORGE      CLOUDY    61  48  63 CALM      29.94R
KANAB          CLOUDY    48  48 100 N3        30.02S

$$

REGIONAL REPORTS     COLORADO/ARIZONA

CITY           SKY/WX    TMP DP  RH WIND       PRES   REMARKS
CRAIG, CO      CLOUDY    38  36  92 CALM      30.00R
GRAND JUNCTION CLOUDY    46  42  86 E8        29.98S
RIFLE          MOCLDY    45  39  79 SE3       29.99S
MONTROSE       CLOUDY    43  41  93 S8        30.03F
CORTEZ         CLOUDY    44  43  96 W3        30.01F
PAGE, AZ       LGT RAIN  52  50  93 S8        29.96F
GRAND CANYON   LGT RAIN  45  39  79 SW7       30.05S
KINGMAN        PTCLDY    59  37  44 SW8       29.96R
FLAGSTAFF      CLEAR     40  32  73 W5        30.08F

$$

REGIONAL REPORTS    NEVADA/IDAHO/WYOMING

CITY           SKY/WX    TMP DP  RH WIND       PRES   REMARKS
LAS VEGAS, NV  CLOUDY    73  41  31 SW14      29.81S
ELY            CLOUDY    45  44  97 W5        30.03S
ELKO           CLOUDY    47  46  97 SW3       30.01F
POCATELLO, ID  FOG       47  47 100 CALM      29.98S VSB 1/2
BURLEY         FOG       44  43  96 CALM      29.97S VSB 1/2
EVANSTON, WY   CLOUDY    39  36  89 SW6       30.02S WCI  35
ROCK SPRINGS   CLOUDY    43  38  82 E10       30.00R
KEMMERER       CLOUDY    41  36  81 N7        30.03F

$$


USA.gov is the U.S. government's official web portal to all federal, state and local government web resources and services.